DW0088 Weather Reports


Display with metric or nautical units.
time (UTC)temp
F
wind
direction
speed
MPH
gust
MPH
rain 1hr
in
rain 24hr
in
rain mn
in
humidity
%
barometer
mb
20260904154002 66 210 4.0 11.0 0.00 0.06 0.06 92 1012.4
20260904153004 65 201 5.0 12.0 0.00 0.06 0.06 93 1012.4
20260904152004 65 222 6.0 13.0 0.01 0.06 0.06 93 1012.8
20260904151004 65 229 6.0 15.0 0.01 0.06 0.06 93 1012.6
20260904150004 65 231 7.0 14.0 0.01 0.06 0.06 92 1012.6
20260904145004 65 235 6.0 18.0 0.01 0.06 0.06 93 1012.4
20260904144004 65 233 7.0 15.0 0.01 0.06 0.06 93 1012.5
20260904143003 65 232 6.0 16.0 0.01 0.06 0.06 92 1012.5
20260904142004 66 234 7.0 16.0 0.01 0.05 0.05 92 1012.3
20260904141003 66 230 6.0 15.0 0.02 0.05 0.05 93 1012.1
20260904140003 65 228 7.0 18.0 0.02 0.05 0.05 94 1012.1
20260904135003 65 237 8.0 18.0 0.02 0.05 0.05 94 1011.9
20260904134003 66 237 9.0 22.0 0.02 0.05 0.05 94 1011.9
20260904133003 66 250 9.0 17.0 0.02 0.05 0.05 94 1011.9
20260904132004 67 228 13.0 26.0 0.02 0.04 0.04 93 1011.8
20260904131003 70 191 12.0 21.0 0.01 0.02 0.02 92 1011.1
20260904125005 71 190 9.0 16.0 0.01 0.02 0.02 92 1010.8
20260904122003 70 186 11.0 27.0 0.01 0.02 0.02 91 1010.9
20260904121003 72 189 9.0 17.0 0.02 0.02 0.02 89 1010.8
20260904120003 71 194 8.0 18.0 0.02 0.02 0.02 91 1010.8
20260904115003 71 196 9.0 18.0 0.02 0.02 0.02 91 1010.9
20260904114003 71 197 9.0 17.0 0.01 0.01 0.01 91 1010.9
20260904113004 70 203 9.0 20.0 0.01 0.01 0.01 92 1010.9
20260904112003 71 195 10.0 18.0 0.01 0.01 0.01 90 1010.9
20260904111003 72 195 12.0 28.0 0.00 0.00 0.00 87 1010.9
20260904105003 71 197 10.0 22.0 0.00 0.00 0.00 88 1011.3
20260904103004 73 190 8.0 20.0 0.00 0.00 0.00 86 1010.9
20260904102003 72 193 8.0 20.0 0.00 0.00 0.00 87 1011.1
20260904101003 71 194 9.0 18.0 0.00 0.00 0.00 87 1011.3
20260904100003 71 202 9.0 19.0 0.00 0.00 0.00 87 1011.3
20260904095003 72 199 10.0 21.0 0.00 0.00 0.00 85 1011.2
20260904093004 73 188 14.0 26.0 0.00 0.00 0.00 84 1011.0
20260904091003 73 184 14.0 26.0 0.00 0.00 0.00 85 1010.8
20260904090004 72 188 14.0 24.0 0.00 0.00 0.00 86 1010.8
20260904084004 71 187 13.0 25.0 0.00 0.00 0.00 89 1011.0
20260904083004 72 187 13.0 29.0 0.00 0.00 0.00 87 1011.0
20260904082004 72 182 13.0 22.0 0.00 0.00 0.00 88 1011.2
20260904081003 71 188 13.0 25.0 0.00 0.00 0.00 88 1011.4
20260904074004 70 187 11.0 22.0 0.00 0.00 0.00 90 1011.6
20260904073004 70 184 12.0 22.0 0.00 0.00 0.00 91 1011.6
20260904072004 71 185 13.0 25.0 0.00 0.01 0.00 88 1011.5
20260904071004 71 185 11.0 18.0 0.00 0.02 0.00 88 1011.6
20260904070004 71 186 12.0 21.0 0.00 0.02 0.00 88 1011.6
20260904065004 71 183 11.0 22.0 0.00 0.05 0.00 88 1011.5
20260904064006 70 185 13.0 23.0 0.00 0.05 0.00 88 1011.6
20260904063004 70 182 14.0 24.0 0.00 0.05 0.00 88 1011.6
20260904062004 70 183 12.0 23.0 0.00 0.05 0.00 88 1011.8
20260904061003 70 187 10.0 18.0 0.00 0.05 0.00 88 1011.9
20260904060004 69 182 10.0 18.0 0.00 0.05 0.00 89 1011.9
20260904055004 69 185 10.0 18.0 0.00 0.05 0.00 89 1012.3
20260904053004 69 184 10.0 17.0 0.00 0.05 0.00 90 1012.5
20260904052004 69 188 10.0 21.0 0.00 0.05 0.00 91 1012.4
20260904051004 69 186 9.0 20.0 0.00 0.05 0.00 91 1012.7
20260904050004 69 182 8.0 15.0 0.00 0.05 0.00 91 1012.7
20260904044004 69 187 9.0 18.0 0.00 0.05 0.00 91 1013.0
20260904043005 69 184 10.0 16.0 0.00 0.05 0.00 91 1013.0
20260904042004 69 188 11.0 20.0 0.00 0.05 0.00 90 1013.0
20260904041004 69 186 10.0 17.0 0.00 0.05 0.00 91 1013.2
20260904040004 69 185 9.0 16.0 0.00 0.05 0.00 91 1013.2
20260904032004 69 185 10.0 19.0 0.00 0.05 0.00 91 1013.4
20260904030005 69 185 11.0 22.0 0.00 0.05 0.00 91 1013.4
20260904025004 69 181 11.0 22.0 0.00 0.05 0.00 91 1013.5
20260904024004 69 183 10.0 18.0 0.00 0.05 0.00 91 1013.8
20260904023005 69 183 11.0 22.0 0.00 0.05 0.00 91 1013.8
20260904022005 69 177 10.0 18.0 0.00 0.05 0.00 91 1013.9
20260904021005 70 179 10.0 18.0 0.00 0.05 0.00 90 1014.2
20260904020005 70 183 9.0 16.0 0.00 0.05 0.00 90 1014.2
20260904015005 70 177 10.0 18.0 0.00 0.05 0.00 91 1014.5
20260904014004 70 177 10.0 17.0 0.00 0.05 0.00 91 1014.5
20260904013005 69 181 8.0 14.0 0.00 0.05 0.00 91 1014.5
20260904012004 69 183 8.0 14.0 0.00 0.05 0.00 91 1014.7
20260904011006 69 185 8.0 17.0 0.00 0.05 0.00 91 1014.9
20260904010005 69 185 8.0 14.0 0.00 0.05 0.00 91 1014.9
20260904005006 70 187 8.0 15.0 0.00 0.05 0.00 91 1014.9
20260904004004 69 182 9.0 16.0 0.00 0.05 0.00 92 1015.0
20260904003006 69 181 10.0 16.0 0.00 0.05 0.00 91 1015.0
20260904002005 69 186 9.0 19.0 0.00 0.05 0.00 91 1015.0
20260904001005 69 186 8.0 16.0 0.00 0.05 0.00 92 1015.2
20260904000005 69 182 9.0 15.0 0.00 0.05 0.00 92 1015.2
20260903235005 69 178 9.0 16.0 0.00 0.05 0.00 92 1015.5
20260903234005 69 182 9.0 16.0 0.00 0.05 0.00 92 1015.5
20260903233005 69 181 9.0 16.0 0.00 0.05 0.00 92 1015.5
20260903232005 69 179 8.0 14.0 0.00 0.05 0.00 92 1015.6
20260903225005 69 177 8.0 14.0 0.00 0.05 0.00 92 1016.0
20260903224005 69 179 7.0 15.0 0.00 0.05 0.00 92 1016.1
20260903223005 69 182 8.0 16.0 0.00 0.05 0.00 91 1016.1
20260903222005 69 184 8.0 13.0 0.00 0.05 0.00 92 1016.2
20260903221005 69 182 8.0 16.0 0.00 0.05 0.00 92 1016.3
20260903220010 69 186 8.0 17.0 0.00 0.05 0.00 92 1016.3
20260903215005 69 183 8.0 15.0 0.00 0.05 0.05 92 1016.2
20260903214005 69 176 9.0 15.0 0.00 0.05 0.05 92 1016.6
20260903213005 69 177 8.0 14.0 0.00 0.05 0.05 93 1016.6
20260903212005 69 178 7.0 12.0 0.00 0.05 0.05 93 1016.9
20260903211005 69 178 6.0 11.0 0.00 0.05 0.05 94 1016.9
20260903210007 69 179 6.0 11.0 0.00 0.05 0.05 94 1016.9
20260903205005 69 181 7.0 12.0 0.00 0.05 0.05 94 1017.0
20260903203007 69 183 7.0 13.0 0.00 0.05 0.05 93 1016.9
20260903202005 69 179 8.0 14.0 0.00 0.05 0.05 93 1016.8
20260903200005 70 179 8.0 16.0 0.00 0.05 0.05 91 1016.7
20260903195005 70 175 8.0 17.0 0.00 0.05 0.05 90 1016.9
20260903194005 70 179 6.0 11.0 0.00 0.05 0.05 90 1016.7
20260903193006 70 172 6.0 11.0 0.00 0.05 0.05 90 1016.7
20260903192006 70 170 4.0 7.0 0.00 0.05 0.05 89 1016.8
20260903191006 70 171 4.0 8.0 0.00 0.05 0.05 88 1016.9
20260903190006 70 169 3.0 6.0 0.00 0.05 0.05 87 1016.9
20260903184006 70 172 4.0 7.0 0.00 0.05 0.05 86 1016.9
20260903183006 70 177 4.0 7.0 0.00 0.05 0.05 86 1016.9
20260903182006 71 186 4.0 6.0 0.00 0.05 0.05 84 1017.0
20260903181006 71 188 4.0 8.0 0.00 0.05 0.05 82 1017.1
20260903180006 72 195 4.0 7.0 0.00 0.05 0.05 82 1017.1
20260903175006 72 194 3.0 8.0 0.00 0.05 0.05 81 1017.0
20260903174006 73 199 4.0 9.0 0.00 0.05 0.05 80 1016.9
20260903173006 73 207 5.0 11.0 0.00 0.05 0.05 79 1016.9
20260903172006 74 201 6.0 13.0 0.00 0.05 0.05 77 1017.0
20260903171006 74 201 6.0 14.0 0.00 0.05 0.05 77 1016.9
20260903170006 73 205 5.0 12.0 0.00 0.05 0.05 78 1016.9
20260903165006 74 228 5.0 13.0 0.00 0.05 0.05 78 1017.1
20260903155945 73 227 4.0 9.0 0.00 0.05 0.05 82 1017.0
20260903154945 73 232 4.0 10.0 0.00 0.05 0.05 82 1017.0